Regional Weather Roundup
Issued by NWS

Home | Current Version | Previous Version | Graphics & Text | Print | Product List | Glossary On
Versions: 1 2 3 4 5 6 7 8 9 10 11 12 13 14 15 16 17 18 19 20 21 22 23 24 25 26 27 28 29 30 31 32 33 34 35 36 37 38 39 40 41 42 43 44 45 46 47 48 49 50
000
ASUS43 KDTX 050510
RWRMI
MICHIGAN HOURLY REGIONAL WEATHER ROUNDUP
NATIONAL WEATHER SERVICE DETROIT/PONTIAC MI
100 AM EDT WED AUG 05 2015

NOTE: "FAIR" INDICATES FEW OR NO CLOUDS BELOW 12,000 FEET WITH NO
SIGNIFICANT WEATHER AND/OR OBSTRUCTION TO VISIBILITY.

MIZ047>049-052>055-059>063-066>070-074>076-081>083-050600-
SOUTHEAST LOWER MICHIGAN

CITY           SKY/WX    TMP DP  RH WIND       PRES   REMARKS
ADRIAN         CLEAR     60  56  86 NW5       30.03R
ALMA           CLEAR     55  54  95 CALM      30.03S
ANN ARBOR      CLEAR     56  54  93 W5        30.01S
BAD AXE        PTCLDY    57  57  98 CALM      30.01R
DETROIT CITY   CLEAR     68  53  58 W5        29.99S
DETROIT        PTCLDY    66  55  67 W7        30.01R
FLINT          CLEAR     62  55  77 W5        30.02R
GROSSE ILE     CLEAR     70  55  60 W6        29.99R
HILLSDALE      CLEAR     60  59  96 CALM      30.04S
HOWELL         CLEAR     58  54  86 W5        30.02R

CITY           SKY/WX    TMP DP  RH WIND       PRES   REMARKS
JACKSON        CLEAR     60  56  86 CALM      30.03S
LAMBERTVILLE   CLEAR     65  57  76 CALM      30.02R
LANSING        CLEAR     60  54  80 CALM      30.03R
LAPEER         NOT AVBL
MASON          CLEAR     56  54  92 CALM      30.03S
MONROE         CLEAR     62  57  81 W7        30.00S
MT. CLEMENS    CLEAR     65  57  75 NW5       29.97S
PONTIAC        CLEAR     64  55  72 NW6       30.00R
PORT HOPE        N/A     59  58  96 SW6       29.99R
PORT HURON     PTCLDY    59  59 100 CALM      29.99S FOG
TRI CITIES     CLOUDY    65  57  75 W5        30.02R
YPSILANTI      CLEAR     66  56  70 W7        30.01S
$$
MIZ043>046-050>051-056>058-064>065-071>073-077>080-050600-
SOUTHWEST LOWER MICHIGAN

CITY           SKY/WX    TMP DP  RH WIND       PRES   REMARKS
BATTLE CREEK     N/A    N/A N/A N/A MISG      30.04S
BENTON HARBOR  CLEAR     59  57  93 CALM      30.03S
BIG RAPIDS     PTCLDY    55  53  92 CALM      30.04R
COLDWATER      CLEAR     59  57  93 CALM      30.04S
HOLLAND        CLEAR     61  57  87 SW3       30.03S
GRAND RAPIDS   CLEAR     60  55  83 CALM      30.03R
KALAMAZOO      CLEAR     60  55  83 CALM      30.04S
MARSHALL       CLEAR     57  55  94 CALM      30.03S
MUSKEGON       PTCLDY    62  57  83 CALM      30.03R
$$
MIZ016>042-050600-
NORTHERN LOWER MICHIGAN

CITY           SKY/WX    TMP DP  RH WIND       PRES   REMARKS
ALPENA         CLEAR     56  50  80 VRB5      30.00R
BEAVER ISLAND  CLEAR     57  49  76 NW6       30.03R
BELLAIRE       CLOUDY    57  54  89 CALM      30.03R
CADILLAC       PTCLDY    53  51  95 CALM      30.04R
CHARLEVOIX     PTCLDY    60  51  71 NW9       30.06R
FRANKFORT      PTCLDY    57  56  95 CALM      30.04R
GAYLORD        MOCLDY    58  54  86 CALM      30.03R
GRAYLING       CLEAR     52  51  96 W3        30.04R
HARBOR SPRINGS CLEAR     56  51  83 CALM      30.03R
HOUGHTON LAKE  PTCLDY    54  51  90 NW3       30.04R
MANISTEE       PTCLDY    57  52  82 CALM      30.05R
OSCODA         CLEAR     56  55  95 CALM      30.00R
PELLSTON       CLEAR     49  47  93 CALM      30.03R
TRAVERSE CITY  MOCLDY    58  54  86 CALM      30.03R
$$
MIZ007>008-015-050600-
EASTERN UPPER MICHIGAN

CITY           SKY/WX    TMP DP  RH WIND       PRES   REMARKS
KINROSS        CLEAR     48  48 100 W6        30.00R
MACKINAC ISLAN CLEAR     54  47  75 NW7       30.01R
NEWBERRY       CLEAR     49  48  94 W8        30.01R
S. S. MARIE    CLEAR     53  49  86 W6        29.98R
$$
MIZ004>006-011>014-085-050600-
CENTRAL UPPER MICHIGAN

CITY           SKY/WX    TMP DP  RH WIND       PRES   REMARKS
MANISTIQUE     CLEAR     48  46  93 W5        30.04R
ESCANABA       CLEAR     50  48  93 CALM      30.05R
MENOMINEE      MOCLDY    59  54  82 NE6       30.05R
SAWYER-GWINN   CLEAR     49  47  92 CALM      30.06S
$$
MIZ001>003-009>011-084-050600-
WESTERN UPPER MICHIGAN

CITY           SKY/WX    TMP DP  RH WIND       PRES   REMARKS
IRON MOUNTAIN  CLEAR     49  47  93 CALM      30.06R
HOUGHTON       CLEAR     51  47  86 NW7       30.05R
COPPER HARBOR    N/A     57  51  80 W3        30.02S
IRONWOOD         N/A     46  46 100 CALM      30.06R VSB 3/4
$$

ABBREVIATIONS USED IN REMARKS
   TC - TEMPERATURE IN CELSIUS
  WCI - WIND CHILL INDEX
   HX - HEAT INDEX
  VSB - VISIBILITY




USA.gov is the U.S. government's official web portal to all federal, state and local government web resources and services.